Weather History for Reno, NV

Change the Weather History Date:

Monday, December 31, 2012

  Actual Average Record
Temperature  
Mean Temperature 20 °F 34 °F  
Max Temperature 28 °F 45 °F 62 °F (1945)
Min Temperature 11 °F 24 °F -7 °F (1891)
Degree Days  
Heating Degree Days 45 31  
Month to date heating degree days 877 924  
Since 1 July heating degree days 1676 2024  
Cooling Degree Days 0 0  
Month to date cooling degree days 0 0  
Year to date cooling degree days 1272 839  
Moisture  
Dew Point 12 °F    
Average Humidity 78    
Maximum Humidity 92    
Minimum Humidity 63    
Precipitation  
Precipitation T in 0.04 in 1.74 in (1913)
Month to date precipitation 2.11 1.03  
Year to date precipitation 5.77 7.40  
Snow  
Snow T in 0.20 in 5.10 in (1936)
Month to date snowfall 7.2 4.9  
Since 1 July snowfall 8.0 8.4  
Snow Depth 2.00 in    
Sea Level Pressure  
Sea Level Pressure 30.33 in    
Wind  
Wind Speed 2 mph (NE)    
Max Wind Speed 6 mph    
Max Gust Speed -    
Visibility 10 miles    
Events Snow    
T = Trace of Precipitation, MM = Missing Value Source: NWS Daily Summary

Daily Weather History Graph

Daily Weather History Graph

Search for Another Location

Airport:

Trip Planner

Search our weather history database for the weather conditions in past years. The results will help you decide how hot, cold, wet, or windy it might be!

Date:

Astronomy

Dec. 31, 2012 Rise Set
Actual Time 7:19 AM PST 4:45 PM PST
Civil Twilight 6:49 AM PST 5:15 PM PST
Nautical Twilight 6:15 AM PST 5:49 PM PST
Astronomical Twilight 5:42 AM PST 6:22 PM PST
Moon 8:20 PM PST (12/31) 9:04 AM PST (12/31)
Length of Visible Light 10h 26m
Length of Day
9h 26m
Waning Gibbous, 89% of the Moon is Illuminated
Dec 31
Waning Gibbous
Jan 4
Last Quarter
Jan 11
New
Jan 18
First Quarter
Jan 26
Full

Hourly Weather History & Observations

Time (PST) Temp. Windchill Dew Point Humidity Pressure Visibility Wind Dir Wind Speed Gust Speed Precip Events Conditions
12:55 AM 17.1 °F - 10.9 °F 77% 30.28 in 10.0 mi Calm Calm - N/A   Clear
1:55 AM 17.1 °F 8.7 °F 10.9 °F 77% 30.33 in 10.0 mi North 5.8 mph - N/A   Clear
2:55 AM 14.0 °F - 9.0 °F 80% 30.35 in 10.0 mi Calm Calm - N/A   Clear
3:55 AM 14.0 °F - 9.0 °F 80% 30.34 in 10.0 mi Calm Calm - N/A   Clear
4:55 AM 12.9 °F - 9.0 °F 84% 30.37 in 10.0 mi Calm Calm - N/A   Clear
5:12 AM 12.2 °F - 8.6 °F 85% 30.27 in 10.0 mi Calm Calm - N/A   Mostly Cloudy
5:55 AM 12.9 °F - 9.0 °F 84% 30.38 in 10.0 mi Calm Calm - N/A   Mostly Cloudy
6:55 AM 12.9 °F - 8.1 °F 81% 30.40 in 10.0 mi Calm Calm - N/A   Mostly Cloudy
7:03 AM 12.2 °F - 8.6 °F 85% 30.28 in 2.5 mi Calm Calm - 0.00 in Snow Light Snow
7:05 AM 12.2 °F - 8.6 °F 85% 30.28 in 10.0 mi Calm Calm - 0.00 in   Mostly Cloudy
7:55 AM 12.9 °F - 10.0 °F 88% 30.40 in 10.0 mi Calm Calm - 0.00 in   Mostly Cloudy
8:15 AM 14.0 °F - 10.4 °F 86% 30.30 in 10.0 mi Calm Calm - N/A   Mostly Cloudy
8:43 AM 15.8 °F 10.2 °F 10.4 °F 79% 30.31 in 10.0 mi WNW 3.5 mph - N/A   Mostly Cloudy
8:55 AM 15.1 °F 9.4 °F 9.0 °F 77% 30.43 in 10.0 mi WNW 3.5 mph - N/A   Mostly Cloudy
9:49 AM 17.6 °F 12.3 °F 12.2 °F 79% 30.30 in 10.0 mi SSE 3.5 mph - N/A   Scattered Clouds
9:55 AM 17.1 °F - 12.9 °F 84% 30.42 in 10.0 mi Calm Calm - N/A   Scattered Clouds
10:55 AM 19.9 °F 14.9 °F 12.9 °F 74% 30.40 in 10.0 mi NE 3.5 mph - N/A   Scattered Clouds
11:55 AM 21.9 °F 15.7 °F 14.0 °F 72% 30.36 in 10.0 mi SSE 4.6 mph - N/A   Scattered Clouds
12:55 PM 24.1 °F - 15.1 °F 69% 30.32 in 10.0 mi Calm Calm - N/A   Partly Cloudy
1:55 PM 26.1 °F 21.9 °F 15.1 °F 63% 30.31 in 10.0 mi ENE 3.5 mph - N/A   Scattered Clouds
2:55 PM 27.0 °F - 15.1 °F 61% 30.31 in 10.0 mi Calm Calm - N/A   Scattered Clouds
3:55 PM 27.0 °F - 15.1 °F 61% 30.30 in 10.0 mi Calm Calm - N/A   Mostly Cloudy
4:55 PM 25.0 °F 19.3 °F 16.0 °F 69% 30.31 in 10.0 mi East 4.6 mph - N/A   Mostly Cloudy
5:55 PM 24.1 °F - 15.1 °F 69% 30.31 in 10.0 mi Calm Calm - N/A   Mostly Cloudy
6:55 PM 24.8 °F 20.5 °F 15.8 °F 69% 30.21 in 10.0 mi NE 3.5 mph - N/A   Mostly Cloudy
7:55 PM 24.1 °F 19.7 °F 16.0 °F 71% 30.33 in 10.0 mi NNE 3.5 mph - N/A   Mostly Cloudy
8:55 PM 23.0 °F 18.4 °F 15.1 °F 72% 30.34 in 10.0 mi North 3.5 mph - N/A   Mostly Cloudy
9:55 PM 21.9 °F - 16.0 °F 78% 30.34 in 10.0 mi Calm Calm - N/A   Scattered Clouds
10:55 PM 19.9 °F 14.9 °F 14.0 °F 78% 30.34 in 10.0 mi SSE 3.5 mph - N/A   Scattered Clouds
11:55 PM 19.0 °F - 14.0 °F 81% 30.30 in 10.0 mi Calm Calm - N/A   Partly Cloudy